TJS-5 1 44978U 20002A 21056.57864222 .00000039 00000-0 00000-0 0 9998 2 44978 0.0539 298.8204 0001152 104.6672 138.8882 1.00273394 4279 CZ-3B R/B 1 44979U 20002B 21056.24981046 .02878405 -82627-6 49642-3 0 9999 2 44979 27.0431 50.8018 3769569 289.2557 34.2877 8.15260654 14538